Rochester, Indiana, United States (46975)
Lat: 41.06N, Lon: 86.22W
Wx Zone: INZ015
Local Info
Past Weather Observations for Today

NOTE: This archive is for the closest National Weather Service station to Rochester. Information may differ from the station used for current weather conditions.

Click here for Long-term Archive

Time Weather Temperature Dewpoint Humidity Pressure Winds Precip Visibility
21:55
Clear
63°F / 17°C 55°F / 13°C 77% 29.98 in
(1015 mb)
Calm - 10SM
21:35
Clear
63°F / 17°C 55°F / 13°C 77% 29.98 in
(1015 mb)
Calm - 10SM
21:15
Clear
66°F / 19°C 55°F / 13°C 68% 29.98 in
(1015 mb)
Calm - 10SM
20:55
Clear
68°F / 20°C 54°F / 12°C 60% 29.95 in
(1014 mb)
Calm - 10SM
20:35
Clear
72°F / 22°C 54°F / 12°C 53% 29.95 in
(1014 mb)
NW 3.5 mph
(NW 6 kph)
- 10SM
20:15
Clear
70°F / 21°C 54°F / 12°C 57% 29.95 in
(1014 mb)
NW 3.5 mph
(NW 6 kph)
- 10SM
19:55
Clear
72°F / 22°C 54°F / 12°C 53% 29.95 in
(1014 mb)
NW 4.6 mph
(NW 7 kph)
- 10SM
19:35
Clear
75°F / 24°C 54°F / 12°C 47% 29.95 in
(1014 mb)
NW 6.9 mph
(NW 11 kph)
- 10SM
19:15
Clear
77°F / 25°C 54°F / 12°C 44% 29.95 in
(1014 mb)
NW 10.4 mph
(NW 17 kph)
- 10SM
18:35
Clear
79°F / 26°C 55°F / 13°C 45% 29.95 in
(1014 mb)
NW 12.7 mph
(NW 20 kph)
- 10SM
18:15
Clear
81°F / 27°C 55°F / 13°C 42% 29.92 in
(1013 mb)
NW 10.4 mph
(NW 17 kph)
- 10SM
17:55
Clear
81°F / 27°C 55°F / 13°C 42% 29.92 in
(1013 mb)
NW 15 mph
(NW 24 kph)
- 10SM
17:35
Clear
82°F / 28°C 55°F / 13°C 40% 29.92 in
(1013 mb)
NW 11.5 mph
(NW 19 kph)
- 10SM
17:15
Clear
82°F / 28°C 55°F / 13°C 40% 29.95 in
(1014 mb)
NW 13.8 mph
(NW 22 kph)
- 10SM
16:55
Clear
82°F / 28°C 55°F / 13°C 40% 29.95 in
(1014 mb)
NW 12.7 mph
(NW 20 kph)
- 10SM
16:35
Partly Cloudy
82°F / 28°C 57°F / 14°C 42% 29.95 in
(1014 mb)
NW 12.7 mph
(NW 20 kph)
- 10SM
16:15
Mostly Cloudy
82°F / 28°C 57°F / 14°C 42% 29.95 in
(1014 mb)
NW 13.8 mph
(NW 22 kph)
- 10SM
15:55
Mostly Cloudy
82°F / 28°C 54°F / 12°C 37% 29.95 in
(1014 mb)
NW 10.4 mph
(NW 17 kph)
- 10SM
15:35
Partly Cloudy
82°F / 28°C 54°F / 12°C 37% 29.95 in
(1014 mb)
NNW 9.2 mph
(NNW 15 kph)
- 10SM
15:15
Partly Cloudy
82°F / 28°C 55°F / 13°C 40% 29.95 in
(1014 mb)
NW 10.4 mph
(NW 17 kph)
- 10SM
14:55
Partly Cloudy
81°F / 27°C 64°F / 18°C 58% 29.95 in
(1014 mb)
NW 13.8 mph
(NW 22 kph)
- 10SM
14:35
Partly Cloudy
79°F / 26°C 66°F / 19°C 65% 29.95 in
(1014 mb)
SSW 5.8 mph
(SSW 9 kph)
- 10SM
14:15
Partly Cloudy
73°F / 23°C 66°F / 19°C 78% 29.98 in
(1015 mb)
SSW 9.2 mph
(SSW 15 kph)
- 10SM
13:55
Partly Cloudy
73°F / 23°C 68°F / 20°C 83% 29.98 in
(1015 mb)
SSW 9.2 mph
(SSW 15 kph)
0.07 in
(1.78 mm)
10SM
13:35
Mostly Cloudy
Light Rain
70°F / 21°C 68°F / 20°C 94% 30.01 in
(1016 mb)
SSW 9.2 mph
(SSW 15 kph)
0.07 in
(1.78 mm)
7SM
13:15
Overcast
Heavy Rain
73°F / 23°C 64°F / 18°C 74% 29.98 in
(1015 mb)
W 15 mph
(W 24 kph)
0.03 in
(0.76 mm)
5SM
12:55
Mostly Cloudy
82°F / 28°C 64°F / 18°C 55% 29.98 in
(1015 mb)
W 18.4 mph
(W 30 kph)
- 10SM
12:35
Clear
84°F / 29°C 64°F / 18°C 51% 29.98 in
(1015 mb)
SSW 16.1 mph
(SSW 26 kph)
- 10SM
12:15
Clear
84°F / 29°C 64°F / 18°C 51% 29.98 in
(1015 mb)
SW 13.8 mph
(SW 22 kph)
- 10SM
11:55
Clear
82°F / 28°C 63°F / 17°C 51% 30.01 in
(1016 mb)
SSW 11.5 mph
(SSW 19 kph)
- 10SM
11:35
Partly Cloudy
82°F / 28°C 63°F / 17°C 51% 30.01 in
(1016 mb)
SSW 11.5 mph
(SSW 19 kph)
- 10SM
11:15
Mostly Cloudy
81°F / 27°C 61°F / 16°C 51% 30.01 in
(1016 mb)
W 12.7 mph
(W 20 kph)
- 10SM
10:55
Mostly Cloudy
81°F / 27°C 61°F / 16°C 51% 30.04 in
(1017 mb)
W 10.4 mph
(W 17 kph)
- 10SM
10:35
Partly Cloudy
81°F / 27°C 63°F / 17°C 54% 30.04 in
(1017 mb)
W 12.7 mph
(W 20 kph)
- 10SM
10:15
Partly Cloudy
81°F / 27°C 63°F / 17°C 54% 30.04 in
(1017 mb)
W 12.7 mph
(W 20 kph)
- 10SM
09:55
Clear
79°F / 26°C 63°F / 17°C 58% 30.04 in
(1017 mb)
W 9.2 mph
(W 15 kph)
- 10SM
09:35
Clear
79°F / 26°C 63°F / 17°C 58% 30.04 in
(1017 mb)
SSW 9.2 mph
(SSW 15 kph)
- 10SM
09:15
Clear
77°F / 25°C 63°F / 17°C 61% 30.04 in
(1017 mb)
SSW 5.8 mph
(SSW 9 kph)
- 10SM
08:55
Clear
75°F / 24°C 63°F / 17°C 65% 30.04 in
(1017 mb)
SSW 5.8 mph
(SSW 9 kph)
- 10SM
08:35
Clear
73°F / 23°C 63°F / 17°C 69% 30.04 in
(1017 mb)
W 5.8 mph
(W 9 kph)
- 10SM
08:15
Clear
73°F / 23°C 63°F / 17°C 69% 30.04 in
(1017 mb)
W 8.1 mph
(W 13 kph)
- 10SM
07:55
Clear
72°F / 22°C 63°F / 17°C 73% 30.04 in
(1017 mb)
SSW 5.8 mph
(SSW 9 kph)
- 10SM
07:35
Clear
70°F / 21°C 63°F / 17°C 78% 30.04 in
(1017 mb)
W 5.8 mph
(W 9 kph)
- 10SM
07:15
Clear
68°F / 20°C 61°F / 16°C 78% 30.04 in
(1017 mb)
W 6.9 mph
(W 11 kph)
- 10SM
06:55
Clear
66°F / 19°C 61°F / 16°C 83% 30.04 in
(1017 mb)
W 3.5 mph
(W 6 kph)
- 10SM
06:35
Clear
64°F / 18°C 61°F / 16°C 88% 30.04 in
(1017 mb)
SSW 4.6 mph
(SSW 7 kph)
- 10SM
06:15
Clear
63°F / 17°C 61°F / 16°C 94% 30.04 in
(1017 mb)
SSW 4.6 mph
(SSW 7 kph)
- 10SM
05:55
Clear
63°F / 17°C 61°F / 16°C 94% 30.04 in
(1017 mb)
SSW 3.5 mph
(SSW 6 kph)
- 10SM
05:35
Clear
63°F / 17°C 61°F / 16°C 94% 30.04 in
(1017 mb)
Calm - 10SM
05:15
Clear
63°F / 17°C 61°F / 16°C 94% 30.04 in
(1017 mb)
W 4.6 mph
(W 7 kph)
- 10SM
04:55
Clear
63°F / 17°C 61°F / 16°C 94% 30.04 in
(1017 mb)
SSW 4.6 mph
(SSW 7 kph)
- 10SM
04:35
Clear
63°F / 17°C 61°F / 16°C 94% 30.04 in
(1017 mb)
SSW 4.6 mph
(SSW 7 kph)
- 10SM
04:15
Clear
63°F / 17°C 61°F / 16°C 94% 30.04 in
(1017 mb)
SSW 3.5 mph
(SSW 6 kph)
- 10SM
03:55
Clear
63°F / 17°C 61°F / 16°C 94% 30.04 in
(1017 mb)
SSW 3.5 mph
(SSW 6 kph)
- 10SM
03:35
Clear
64°F / 18°C 61°F / 16°C 88% 30.04 in
(1017 mb)
W 3.5 mph
(W 6 kph)
- 10SM
03:15
Clear
64°F / 18°C 61°F / 16°C 88% 30.04 in
(1017 mb)
W 4.6 mph
(W 7 kph)
- 10SM
02:55
Clear
64°F / 18°C 61°F / 16°C 88% 30.04 in
(1017 mb)
W 4.6 mph
(W 7 kph)
- 10SM
02:35
Clear
66°F / 19°C 61°F / 16°C 83% 30.04 in
(1017 mb)
SSW 6.9 mph
(SSW 11 kph)
- 10SM
02:15
Clear
66°F / 19°C 61°F / 16°C 83% 30.04 in
(1017 mb)
SSW 6.9 mph
(SSW 11 kph)
- 10SM
01:55
Clear
68°F / 20°C 59°F / 15°C 73% 30.04 in
(1017 mb)
SSW 5.8 mph
(SSW 9 kph)
- 10SM
01:35
Clear
68°F / 20°C 59°F / 15°C 73% 30.04 in
(1017 mb)
SSW 3.5 mph
(SSW 6 kph)
- 10SM
01:15
Partly Cloudy
68°F / 20°C 61°F / 16°C 78% 30.04 in
(1017 mb)
SSW 3.5 mph
(SSW 6 kph)
- 10SM
00:55
Mostly Cloudy
68°F / 20°C 61°F / 16°C 78% 30.04 in
(1017 mb)
SSW 3.5 mph
(SSW 6 kph)
- 10SM
00:35
Mostly Cloudy
68°F / 20°C 61°F / 16°C 78% 30.04 in
(1017 mb)
SSW 3.5 mph
(SSW 6 kph)
- 10SM
00:15
Partly Cloudy
68°F / 20°C 61°F / 16°C 78% 30.04 in
(1017 mb)
Calm - 10SM
Time Weather Temperature Dewpoint Humidity Pressure Winds Precip Visibility


Weather for websites

WeatherForYou.com, LLC is not responsible for any damages or problems caused by this service. Current weather conditions are obtained from the closest station including government and personal stations which may have varying degrees of accuracy. Weather forecasts are derived from the NOAA NDFD. Like all things, this site belongs to Jesus Christ... He just trusts us to maintain it. If you have any questions or comments email webmaster@weatherforyou.com

Copyright © 2015, WeatherForYou.com LLC. All rights reserved.